GW4318 Weather Reports


Display with metric or nautical units.
time (UTC)temp
F
wind
direction
speed
MPH
gust
MPH
rain 1hr
in
rain 24hr
in
rain mn
in
humidity
%
barometer
mb
20260510045531 51 38 0.0 1.0 0.00 0.57 0.00 99 1011.9
20260510044531 51 54 0.0 2.0 0.00 0.57 0.00 99 1012.0
20260510043531 51 23 0.0 1.0 0.00 0.57 0.00 99 1012.2
20260510042531 51 43 1.0 2.0 0.00 0.57 0.00 99 1012.2
20260510041516 51 347 0.0 2.0 0.00 0.57 0.00 99 1012.1
20260510040557 51 292 1.0 2.0 0.00 0.57 0.00 99 1011.7
20260510035532 51 79 0.0 2.0 0.00 0.57 0.57 99 1011.9
20260510034533 51 95 0.0 1.0 0.00 0.57 0.57 99 1012.0
20260510033537 51 36 1.0 2.0 0.00 0.57 0.57 99 1012.1
20260510032531 51 51 1.0 2.0 0.00 0.57 0.57 99 1012.2
20260510031534 51 39 0.0 1.0 0.00 0.57 0.57 99 1012.3
20260510030517 52 354 1.0 1.0 0.00 0.57 0.57 99 1012.5
20260510025517 52 355 1.0 1.0 0.00 0.57 0.57 99 1012.4
20260510024517 52 317 1.0 4.0 0.00 0.57 0.57 99 1012.5
20260510023517 52 38 0.0 2.0 0.00 0.57 0.57 99 1012.4
20260510022518 52 81 1.0 3.0 0.00 0.57 0.57 99 1012.5
20260510021518 52 88 2.0 3.0 0.00 0.57 0.57 99 1012.6
20260510020518 52 80 2.0 4.0 0.00 0.57 0.57 99 1012.7
20260510015518 52 292 2.0 5.0 0.00 0.57 0.57 99 1012.7
20260510014538 52 52 1.0 3.0 0.00 0.57 0.57 99 1012.7
20260510013519 51 99 2.0 3.0 0.01 0.57 0.57 99 1012.6
20260510012539 50 67 1.0 2.0 0.02 0.57 0.57 99 1012.8
20260510011519 50 8 1.0 2.0 0.02 0.57 0.57 99 1012.9
20260510010540 50 38 1.0 1.0 0.04 0.57 0.57 99 1012.7
20260510005519 49 54 1.0 2.0 0.05 0.57 0.57 99 1012.7
20260510004519 49 50 0.0 1.0 0.07 0.57 0.57 99 1012.7
20260510003519 49 38 0.0 1.0 0.08 0.57 0.57 99 1012.7
20260510002534 49 15 0.0 1.0 0.10 0.56 0.56 99 1012.8
20260510001522 49 46 0.0 1.0 0.13 0.55 0.55 99 1012.9
20260510000521 49 334 1.0 1.0 0.16 0.54 0.54 99 1013.0
20260509235539 49 3 1.0 1.0 0.16 0.52 0.52 99 1013.1
20260509234519 49 293 0.0 1.0 0.16 0.50 0.50 99 1013.1
20260509233520 49 355 0.0 1.0 0.15 0.48 0.48 99 1013.0
20260509232520 49 73 0.0 2.0 0.14 0.46 0.46 99 1013.0
20260509231520 49 4 1.0 1.0 0.11 0.42 0.42 99 1012.9
20260509230520 49 135 0.0 2.0 0.07 0.38 0.38 99 1012.8
20260509225540 49 40 0.0 1.0 0.06 0.36 0.36 99 1012.6
20260509224522 49 22 0.0 1.0 0.05 0.35 0.35 99 1012.8
20260509223521 49 352 0.0 1.0 0.05 0.33 0.33 99 1012.7
20260509222521 49 9 1.0 1.0 0.05 0.31 0.31 99 1012.6
20260509221540 49 32 0.0 2.0 0.06 0.31 0.31 99 1012.7
20260509220521 49 357 1.0 2.0 0.10 0.31 0.31 99 1012.7
20260509215602 49 84 1.0 2.0 0.13 0.30 0.30 99 1012.8
20260509214522 50 336 1.0 2.0 0.14 0.29 0.29 99 1012.8
20260509213522 50 354 1.0 2.0 0.16 0.29 0.29 99 1012.7
20260509212523 50 21 1.0 1.0 0.17 0.27 0.27 99 1012.7
20260509211523 50 36 1.0 2.0 0.17 0.25 0.25 99 1012.7
20260509210522 50 3 1.0 2.0 0.13 0.20 0.20 100 1012.5
20260509205525 51 12 1.0 3.0 0.11 0.17 0.17 99 1012.6
20260509204524 51 10 1.0 2.0 0.09 0.15 0.15 99 1012.5
20260509203619 52 358 1.0 2.0 0.06 0.13 0.13 98 1012.5
20260509202523 53 353 0.0 1.0 0.04 0.10 0.10 96 1012.6
20260509201543 53 337 1.0 1.0 0.02 0.08 0.08 95 1012.6
20260509200551 54 24 1.0 2.0 0.01 0.08 0.08 92 1012.4
20260509195523 54 29 0.0 1.0 0.00 0.07 0.07 91 1012.6
20260509194523 54 358 1.0 2.0 0.00 0.07 0.07 91 1012.5
20260509193523 54 180 1.0 3.0 0.00 0.07 0.07 89 1012.6
20260509192524 54 318 1.0 2.0 0.00 0.07 0.07 90 1012.4
20260509191523 54 183 1.0 2.0 0.00 0.07 0.07 90 1012.3
20260509190525 54 115 1.0 2.0 0.00 0.07 0.07 92 1012.3
20260509185559 53 345 1.0 2.0 0.00 0.07 0.07 93 1012.2
20260509184524 53 352 1.0 2.0 0.00 0.07 0.07 93 1012.3
20260509183527 53 350 1.0 2.0 0.00 0.07 0.07 93 1012.4
20260509182524 52 349 1.0 2.0 0.00 0.07 0.07 94 1012.7
20260509181524 52 352 2.0 3.0 0.00 0.07 0.07 93 1013.2
20260509180544 52 341 1.0 1.0 0.00 0.07 0.07 94 1013.5
20260509175544 52 2 1.0 2.0 0.00 0.07 0.07 94 1013.4
20260509174525 52 340 1.0 2.0 0.00 0.07 0.07 95 1013.4
20260509173526 52 334 2.0 3.0 0.00 0.07 0.07 94 1013.3
20260509172525 52 358 1.0 2.0 0.00 0.07 0.07 93 1013.3
20260509171526 52 349 1.0 2.0 0.00 0.07 0.07 94 1013.5
20260509170525 51 352 1.0 2.0 0.00 0.07 0.07 93 1013.6
20260509165525 51 345 1.0 3.0 0.00 0.07 0.07 94 1013.6
20260509164528 52 353 1.0 2.0 0.01 0.07 0.07 93 1013.7
20260509163525 51 218 0.0 0.0 0.01 0.07 0.07 93 1013.8
20260509162525 51 5 1.0 2.0 0.01 0.07 0.07 96 1013.9
20260509161552 50 308 2.0 3.0 0.01 0.06 0.06 96 1013.9
20260509160526 50 291 1.0 2.0 0.01 0.06 0.06 97 1014.0
20260509155526 49 122 1.0 2.0 0.01 0.06 0.06 97 1014.0
20260509154546 49 349 1.0 2.0 0.01 0.06 0.06 97 1013.8
20260509153526 49 337 1.0 2.0 0.01 0.06 0.06 97 1013.8
20260509152526 49 5 1.0 2.0 0.01 0.06 0.06 97 1013.9
20260509151526 49 359 1.0 2.0 0.01 0.05 0.05 97 1014.2
20260509150551 48 8 1.0 1.0 0.02 0.05 0.05 98 1014.3
20260509145527 47 318 1.0 2.0 0.02 0.05 0.05 99 1014.4
20260509144527 47 2 1.0 2.0 0.02 0.05 0.05 99 1014.6
20260509143527 46 352 0.0 1.0 0.02 0.05 0.05 99 1014.8
20260509142547 46 352 1.0 2.0 0.02 0.05 0.05 99 1014.9
20260509141547 46 2 1.0 1.0 0.02 0.04 0.04 99 1015.0
20260509140527 46 359 1.0 1.0 0.01 0.04 0.04 99 1015.1
20260509135547 45 320 1.0 1.0 0.00 0.03 0.03 99 1015.1
20260509134547 45 307 1.0 2.0 0.00 0.03 0.03 99 1015.0
20260509133528 45 92 1.0 2.0 0.01 0.03 0.03 99 1015.0
20260509132542 44 347 0.0 1.0 0.01 0.03 0.03 100 1014.8
20260509131528 44 348 0.0 1.0 0.01 0.03 0.03 100 1014.7
20260509130530 44 351 0.0 1.0 0.01 0.03 0.03 100 1014.7
20260509125528 43 8 1.0 1.0 0.01 0.02 0.02 100 1014.8
20260509124551 43 0.0 0.0 0.01 0.02 0.02 100 1014.9
20260509123530 43 8 0.0 1.0 0.02 0.02 0.02 100 1015.1
20260509122529 42 3 0.0 1.0 0.02 0.02 0.02 100 1015.0
20260509121529 42 20 1.0 2.0 0.02 0.02 0.02 99 1015.1
20260509120549 42 355 0.0 1.0 0.02 0.02 0.02 99 1015.2
20260509115528 42 103 1.0 2.0 0.02 0.02 0.02 99 1015.1
20260509114529 42 105 1.0 2.0 0.01 0.01 0.01 99 1015.1
20260509113529 41 11 1.0 2.0 0.01 0.01 0.01 99 1015.0
20260509112530 41 33 1.0 2.0 0.00 0.00 0.00 99 1015.2
20260509111517 40 50 1.0 3.0 0.00 0.00 0.00 99 1015.3
20260509110518 39 353 1.0 2.0 0.00 0.00 0.00 99 1015.1
20260509105517 39 356 0.0 1.0 0.00 0.00 0.00 99 1015.2
20260509104519 39 61 0.0 1.0 0.00 0.00 0.00 99 1015.1
20260509103521 38 86 0.0 1.0 0.00 0.00 0.00 99 1015.1
20260509102521 37 7 0.0 1.0 0.00 0.00 0.00 99 1015.0
20260509101518 36 66 0.0 0.0 0.00 0.00 0.00 99 1014.9
20260509100518 35 13 0.0 1.0 0.00 0.00 0.00 99 1014.8
20260509095520 35 19 0.0 1.0 0.00 0.00 0.00 99 1014.7
20260509094521 35 36 0.0 1.0 0.00 0.00 0.00 99 1014.4
20260509093539 35 359 0.0 1.0 0.00 0.00 0.00 99 1014.4
20260509092519 35 144 0.0 2.0 0.00 0.00 0.00 99 1014.3
20260509091520 35 9 0.0 1.0 0.00 0.00 0.00 99 1014.3
20260509090519 35 56 0.0 1.0 0.00 0.00 0.00 99 1014.2
20260509085518 35 20 0.0 1.0 0.00 0.00 0.00 99 1014.2
20260509084519 34 17 0.0 1.0 0.00 0.00 0.00 99 1014.2
20260509083519 35 310 0.0 1.0 0.00 0.00 0.00 99 1014.0
20260509082525 35 52 0.0 1.0 0.00 0.00 0.00 99 1014.2
20260509081518 36 116 0.0 1.0 0.00 0.00 0.00 99 1014.1
20260509080517 36 70 0.0 0.0 0.00 0.00 0.00 100 1014.1
20260509075520 36 39 0.0 2.0 0.00 0.00 0.00 99 1014.2
20260509074522 36 48 0.0 1.0 0.00 0.00 0.00 99 1014.2
20260509073517 36 118 0.0 1.0 0.00 0.00 0.00 99 1014.3
20260509072517 36 0.0 0.0 0.00 0.00 0.00 99 1014.2
20260509071518 36 33 0.0 2.0 0.00 0.00 0.00 100 1014.3
20260509070517 36 244 0.0 1.0 0.00 0.00 0.00 100 1014.1
20260509065518 36 21 0.0 1.0 0.00 0.00 0.00 99 1014.0
20260509064518 37 37 1.0 2.0 0.00 0.00 0.00 100 1013.9
20260509063518 37 9 0.0 1.0 0.00 0.00 0.00 99 1014.0
20260509062518 37 104 0.0 1.0 0.00 0.00 0.00 99 1013.9
20260509061520 37 41 0.0 1.0 0.00 0.00 0.00 99 1014.0
20260509060520 37 0.0 0.0 0.00 0.00 0.00 99 1013.8
20260509055518 37 57 0.0 1.0 0.00 0.00 0.00 99 1013.9
20260509054520 37 0.0 0.0 0.00 0.00 0.00 99 1014.0
20260509053518 37 255 0.0 1.0 0.00 0.00 0.00 98 1014.1
20260509052518 37 136 0.0 1.0 0.00 0.00 0.00 98 1014.0
20260509051519 37 51 0.0 1.0 0.00 0.00 0.00 98 1014.0
20260509050519 37 139 0.0 1.0 0.00 0.00 0.00 97 1013.9